Location: Newark
(52.3735°N, 16.9806°E)
Time: 09:42:34
(UTC+00:00)

N. Korean satellite - Pass Details

Date: 04 October 2021
Orbit: 450 x 495 km, 97.3° (Epoch: 15 October)

Event Time Altitude Azimuth Distance (km) Brightness Sun altitude
Rises 03:57:41 0° 17° (NNE) 2,555 10.6 -10.1°
Reaches altitude 10° 03:59:48 10° 24° (NNE) 1,678 9.7 -9.8°
Maximum altitude 04:03:18 48° 99° (E) 651 7.7 -9.2°
Drops below altitude 10° 04:06:49 10° 175° (S) 1,683 9.3 -8.7°
Sets 04:08:57 0° 181° (S) 2,565 10.2 -8.4°
